Home   Weather   Palma   Past weeks
Flag for Spain

Past Weather in Palma, Majorca, Spain — Yesterday and Last 2 Weeks

Now
72 °F

Light rain. Passing clouds.


Feels Like: 69 °F
Forecast: 66 / 57 °F
Wind: 6 mph from Northeast

Location: Palma De Mallorca / Son San Juan

Current Time: Oct 22, 2019 at 10:24:35 pm

Latest Report: Oct 22, 2019 at 9:30 pm


Visibility: 5 mi

Pressure: 29.65 "Hg

Humidity: 88%

Dew Point: 68 °F

Location of PalmaLocation

Past Weather in Palma — Graph

°F

Palma Temperature Yesterday

Maximum temperature yesterday: 70 °F (at 12:43 am)
Minimum temperature yesterday: 59 °F (at 9:19 pm)
Average temperature yesterday: 63 °F

High & Low Weather Summary for the Past Weeks

 TemperatureHumidityPressure
High88 °F (Oct 14, 1:30 pm)100% (Oct 14, 5:00 am)30.21 "Hg (Oct 14, 5:00 am)
Low50 °F (Oct 16, 5:30 am)38% (Oct 14, 1:30 pm)29.62 "Hg (Oct 22, 6:30 pm)
Average69 °F78%30.01 "Hg
* Reported Oct 7 9:00 pm — Oct 22 9:00 pm, Palma. Weather by CustomWeather, © 2019

Note: Actual official high and low records may vary slightly from our data, if they occured in-between our weather recording intervals... More about our weather records

Advertising

Palma Weather History for the Previous 24 Hours

Scroll right to see more
 ConditionsComfort  
Time TempWeatherWind HumidityBarometerVisibility
9:00 pm
Tue, Oct 22
73 °FOvercast.8 mph83%29.71 "HgN/A
8:30 pm73 °FThunderstorms. Passing clouds.17 mph83%29.68 "HgN/A
8:16 pm73 °FPassing clouds.10 mph78%29.68 "HgN/A
8:00 pm73 °FPassing clouds.2 mph83%29.65 "HgN/A
7:30 pm73 °FPassing clouds.5 mph83%29.62 "HgN/A
7:00 pm73 °FPassing clouds.12 mph89%29.62 "HgN/A
6:30 pm73 °FScattered clouds.9 mph89%29.62 "HgN/A
6:00 pm77 °FRain. Scattered clouds.8 mph74%29.68 "HgN/A
5:53 pm77 °FScattered clouds.8 mph74%29.68 "HgN/A
5:30 pm77 °FScattered clouds.9 mph74%29.65 "HgN/A
5:00 pm77 °FScattered clouds.6 mph74%29.71 "HgN/A
4:30 pm79 °FPassing clouds.8 mph70%29.71 "HgN/A
4:00 pm81 °FScattered clouds.8 mph66%29.74 "HgN/A
3:30 pm79 °FScattered clouds.9 mph74%29.74 "HgN/A
3:00 pm81 °FScattered clouds.13 mph74%29.74 "HgN/A
2:30 pm79 °FScattered clouds.15 mph74%29.74 "HgN/A
2:00 pm79 °FScattered clouds.12 mph74%29.74 "HgN/A
1:30 pm77 °FScattered clouds.15 mph83%29.77 "HgN/A
1:00 pm77 °FScattered clouds.14 mph79%29.77 "HgN/A
12:30 pm77 °FScattered clouds.9 mph79%29.74 "HgN/A
12:00 pm73 °FScattered clouds.10 mph89%29.74 "HgN/A
11:30 am72 °FPassing clouds.10 mph88%29.74 "HgN/A
11:00 am72 °FPassing clouds.16 mph88%29.77 "HgN/A
10:30 am68 °FPassing clouds.14 mph88%29.77 "HgN/A
10:00 am68 °FPassing clouds.18 mph88%29.77 "HgN/A
9:30 am66 °FPassing clouds.22 mph88%29.80 "HgN/A
9:00 am66 °FPassing clouds.23 mph88%29.80 "HgN/A
8:30 am66 °FPassing clouds.21 mph88%29.80 "HgN/A
8:00 am66 °FPassing clouds.21 mph88%29.83 "HgN/A
7:30 am64 °FLight rain. Passing clouds.18 mph94%29.83 "HgN/A
7:00 am66 °FPassing clouds.16 mph88%29.86 "HgN/A
6:45 am66 °FPassing clouds.15 mph88%29.86 "HgN/A
6:30 am66 °FThundershowers. Passing clouds.16 mph88%29.86 "HgN/A
6:16 am66 °FThundershowers. Passing clouds.16 mph88%29.86 "Hg4 mi
5:30 am64 °FThundershowers. Passing clouds.14 mph100%29.92 "Hg4 mi
5:00 am63 °FThunderstorms. Passing clouds.2 mph100%29.95 "Hg2 mi
4:30 am63 °FThundershowers. Passing clouds.6 mph100%29.95 "Hg5 mi
4:00 am63 °FLight rain. Passing clouds.3 mph94%29.95 "HgN/A
3:30 am64 °FLight rain. Passing clouds.10 mph88%29.95 "HgN/A
3:00 am64 °FPassing clouds.10 mph88%29.98 "HgN/A
2:30 am64 °FPassing clouds.9 mph88%29.95 "HgN/A
2:00 am63 °FPassing clouds.18 mph94%29.95 "HgN/A
1:30 am63 °FLight rain. Passing clouds.20 mph88%29.95 "HgN/A
1:00 am61 °FLight rain. Passing clouds.21 mph94%29.95 "Hg6 mi
12:30 am61 °FThundershowers. Passing clouds.13 mph88%30.01 "Hg6 mi
12:00 am61 °FThundershowers. Passing clouds.12 mph88%30.04 "Hg6 mi
11:30 pm
Mon, Oct 21
59 °FHeavy rain. Passing clouds.14 mph100%30.04 "Hg2 mi
11:00 pm59 °FHeavy rain. Passing clouds.8 mph100%30.09 "Hg2 mi
10:30 pm61 °FHeavy rain. Passing clouds.13 mph94%30.07 "Hg2 mi
10:21 pm61 °FHeavy rain. Passing clouds.8 mph88%30.09 "Hg5 mi
10:00 pm61 °FThundershowers. Passing clouds.10 mph94%30.04 "HgN/A
Weather by CustomWeather, © 2019

See weather overview